Find Starlink 36193

NORAD ID: 67099 Int'l Des: 2025-298 Owner: SPXS Country: US Constellation: starlink operational
LEOCIRCULAR

实时位置

正在加载3D地球...

关于 Starlink 36193

正在加载描述...

即将过境

Passes for default location (London). Set your location on the main map for personalized predictions.

高度历史

Loading altitude history...

两行轨道根数

1 67099U 25298AA 26106.76406944 -.00001914 00000-0 -15269-3 0 9995
2 67099 70.0009 278.3381 0002775 267.3526 92.7315 14.98315293 18925
Epoch: Apr 16, 2026 • Age: 16 hours

当前状态

高度 585.5 km
速度 7.57 km/s
星下点 70.04°N, 4.24°E
发射日期 Dec 14, 2025
运行时间 0.3 years
类型 internet

技术详情

分类 Payload
质量 575.00 kg
干质量 530.00 kg
总质量 575.00 kg
长度 0.30 m
直径 4.10 m
跨度 29.00 m
形状 Box + pan
制造商 SPXS
平台类型 Starlink V2MO
阶段状态 In Orbit
所有者/国家 SPXS/US

Most Searched